{"data":{"norad_id":66038,"intl_designator":"2025-233F","name":"QIANFAN-96","alt_names":[],"object_type":"PAYLOAD","status":"ACTIVE","operator":null,"country":"PRC","launch_date":"2025-10-17","launch_site_code":"TAISC","launch_vehicle":null,"mission":null,"orbit_class":"UNKNOWN","rcs_meters":null,"size_class":null,"mass_kg":null,"dimensions":null,"purposes":[],"wikipedia_slug":null,"has_3d_model":false,"image_url":null,"decayed_at":null,"tle_current":{"epoch":"2026-09-20T09:56:36.942144Z","epoch_age_seconds":147829,"freshness":"FRESH","line1":"1 66038U 25233F   26263.41431646  .00000076  00000+0  99087-4 0  9995","line2":"2 66038  89.0056  33.5789 0001717  92.0416 268.0932 13.51029139 46033","mean_motion":13.51029139,"eccentricity":0.0001717,"inclination_deg":89.0056,"raan_deg":33.5789,"arg_perigee_deg":92.0416,"mean_anomaly_deg":268.0932,"bstar":9.9087e-5,"rev_number":4603,"period_min":106.58541392126,"perigee_km":1067.1959277666,"apogee_km":1069.7530941594,"semimajor_km":7446.611510963,"source":"CELESTRAK","updated_at":"2026-09-21T09:00:15.732813Z"}}}